Location: Aufkirchen
(47.9603°N, 11.3653°E)
Time: 11:33:15
(UTC+01:00)

Tiros 1 - Pass Details

Date: 03 December 2020
Orbit: 630 x 663 km, 48.4° (Epoch: 21 January)

Event Time Altitude Azimuth Distance (km) Brightness Sun altitude
Rises 14:30:26 0° 236° (SW) 2,985 12.0 12.6°
Reaches altitude 10° 14:32:49 10° 232° (SW) 2,075 11.6 12.4°
Maximum altitude 14:37:29 54° 155° (SSE) 801 8.1 11.9°
Drops below altitude 10° 14:42:10 10° 79° (E) 2,077 9.4 11.4°
Sets 14:44:33 0° 75° (ENE) 2,988 10.1 11.2°
